Zurück zum Katalog

OPS 0856 DEB

LostPO
NORAD 25826·DEBRIS·🇺🇸 United States

Gestartet Aug 19, 1966 von Vandenberg Space Force Base

Loading…

Nächste Überflüge (nächste 24 Stunden)

TLE

VeraltetSource: Space-Track

Epoche: Jun 19, 2022, 22:35 UTC

1 25826U 66077T   22170.94163091  .00000485  00000-0  43838-1 0  9998
2 25826  88.4121  42.1291 1757660 307.2863  38.0066  8.73560252746085

Verfolge OPS 0856 DEB in Echtzeit mit AllMySat

Download on the App Store